Location: Knowlton
(51.2333°N, 1.2667°E)
Time: 03:54:33
(UTC+00:00)

Cosmos 1943 - Pass Details

Date: 18 April 2021
Orbit: 834 x 849 km, 71.0° (Epoch: 06 May)

Event Time Altitude Azimuth Distance (km) Brightness Sun altitude
Rises 22:40:23 0° 330° (NNW) 3,396 7.6 -25.6°
Reaches altitude 10° 22:42:50 10° 331° (NNW) 2,458 6.6 -25.7°
Maximum altitude 22:48:29 81° 59° (ENE) 853 3.1 -26.0°
Enters shadow 22:49:02 72° 121° (ESE) 882 3.0 -26.0°
